Regional Weather Roundup
Issued by NWS Charleston, SC

Current Version | Previous Version | Text Only | Print | Product List | Glossary Off
Versions: 1 2 3 4 5 6 7 8 9 10 11 12 13 14 15 16 17 18 19 20 21 22 23 24 25 26 27 28 29 30 31 32 33 34 35 36 37 38 39 40 41 42 43 44 45 46 47 48 49 50

000
ASUS42 KCHS 301325
RWRCHS

REGIONAL WEATHER ROUNDUP
NATIONAL WEATHER SERVICE CHARLESTON SC
900 AM EDT TUE SEP 30 2014

NOTE: "FAIR" INDICATES FEW OR NO CLOUDS BELOW 12,000 FEET WITH NO
SIGNIFICANT WEATHER AND/OR OBSTRUCTIONS TO VISIBILITY.

NOT ALL STATIONS ARE QUALITY CONTROLLED BY THE NATIONAL
WEATHER SERVICE. USE DATA WITH CAUTION...ESPECIALLY
DEWPOINT OBSERVATIONS.

SCZ027-030-031-034>040-042>050-301400-
...SOUTH CAROLINA...

CITY           SKY/WX    TMP DP  RH WIND       PRES   REMARKS
N CHARLESTON   PTSUNNY   68  63  84 N10       29.91R
WATERFRONT PRK NOT AVBL
FORT JOHNSON   NOT AVBL
MOUNT PLEASANT CLOUDY    66  64  94 N9        29.90S
JOHNS ISLAND   CLOUDY    68  68 100 N8        29.90S
PINOPOLIS        N/A     66  63  88 NE12      29.84R
MONCKS CORNER  CLOUDY    68  64  88 N7        29.92R
SUMMERVILLE    CLOUDY    64  64 100 N6        29.93R
BEAUFORT MCAS  CLOUDY    68  63  84 N7        29.91S
BEAUFORT ARPT  CLOUDY    68  64  88 N10       29.90S
HILTON HEAD IS PTSUNNY   68  64  88 N7        29.91S
GEORGETOWN     NOT AVBL
WALTERBORO     SUNNY     68  68 100 N6        29.93S
ORANGEBURG     SUNNY     67  60  78 NE7       29.94S
BARNWELL       FAIR      68  61  77 NE7       29.94F
AIKEN          FAIR      68  66  94 NW5       29.99S
MANNING        FAIR      66  66 100 N7        29.93S
KINGSTREE      NOT AVBL
COLUMBIA       MOSUNNY   69  61  75 N5        29.95R
SUMTER         SUNNY     66  59  77 N6        29.92S
FLORENCE       MOSUNNY   66  63  90 N6        29.93S
MYRTLE BEACH   SUNNY     66  61  82 N9        29.91R
N MYRTLE BEACH SUNNY     67  61  81 N9        29.90R

$$

GAZ063-065-086>088-099>101-113>116-118-119-134-136>141-150-301400-
...GEORGIA...

CITY           SKY/WX    TMP DP  RH WIND       PRES   REMARKS
SAVANNAH ARPT  CLOUDY    68  64  88 N9        29.91S FOG
HUNTER AAF     CLOUDY    66  66 100 N7        29.89R
FORT STEWART   CLOUDY    68  66  92 N8        29.90R
STATESBORO     NOT AVBL
SYLVANIA       CLOUDY    68  67  97 NE7       29.94S
CLAXTON          N/A     68  68 100 NE6       29.92S
THOMSON        MOSUNNY   67  67 100 N5        30.01R
AUGUSTA-BUSH   SUNNY     67  62  84 N6        29.95R
AUGUSTA-DANIEL MOSUNNY   66  62  87 N6        29.96S
SWAINSBORO     CLOUDY    70  70 100 NE5       29.95R
VIDALIA        CLOUDY    68  64  88 N7        29.93S
ALMA           CLOUDY    69  67  93 N6        29.91R
WAYCROSS       CLOUDY    72  71  97 NE5       29.91R
JESUP          CLOUDY    72  70  94 NE3       29.91S
BRUNSWICK      CLOUDY    70  68  94 N6        29.90S
SAINT SIMONS   CLOUDY    69  68  96 N9        29.88R

$$

SCZ027-028-034-036>038-045-046-048>050-GAZ119-141-301400-
...LAKE AND SUPPLEMENTAL COASTAL OBSERVATIONS...

STATION/POSITION TIME  TEMP    WIND        PRES    WAVE   SWELL
                       AIR SEA DIR/SP/G            HT/PER HT/PER/DIR
                 (UTC) (F)     (DEG/KT/KT) (MB)    (FT/S) (FT/S/D)
UPR LAKE MARION  NOT AVBL
WINYAH BAY       1300   65     350/  7     1012.0S
LAKE MURRAY      1200   63      CALM  /  3 1013.9R
ACE BASIN NERRS  1300   65      10/  3     1013.0R
FORT PULASKI     1300   67     340/ 12/ 15 1012.5S
SAPELO ISLAND    NOT AVBL

$$

ANZ835-935-AMZ111-154-330-350-352-354-374-450-454-472-301400-
...C-MAN AND BUOY OBSERVATIONS...

STATION/POSITION TIME  TEMP    WIND        PRES    WAVE   SWELL
                       AIR SEA DIR/SP/G            HT/PER HT/PER/DIR
                 (UTC) (F)     (DEG/KT/KT) (MB)    (FT/S) (FT/S/D)
FOLLY BEACH CMAN 1300   67     360/ 11/ 14 1012.7R
BUOY 41004       1300   75 81   10/ 17/ 21 1010.2R   5/ 6   2/12
BUOY 41008       1300   73 79   20/ 17/ 21 1011.1R   4/ 5   2/230/12
5E ST. MARYS GA  1300      79                N/A     5/ 5
FRYING PAN BUOY  NOT AVBL
BUOY 41025       1300   72      20/ 16/ 19 1011.6F   4/ 5   2/ 60/ 8
CAPE LOOKOUT NC  1300   70      30/ 13/ 16 1011.9F
BUOY 41002       1159   79 81  140/  4/  6 1010.6S   3/ 8   2/ 70/ 8
BUOY 41010       1300   82 85  240/ 16/ 17 1009.8F   3/ 8   2/ 90/ 8
BUOY 41012       NOT AVBL
ST AUGUSTINE FL  1300   74     310/  5/  6 1011.3R
CAPERS NEARSHORE 1200   67      20/ 14/ 16   N/A
FRIPP NEARSHORE  NOT AVBL


$$



USA.gov is the U.S. government's official web portal to all federal, state and local government web resources and services.